SCP
1 1 1 1 2 2 2 2 2 2 2 2 2 2 2 2 2 2 2 2 2 1 1 1 0 0 0 0 0 0 0 0 0 0 0 0 0 0 0 0 0 1 1
1 1 1 1 2 2 2 2 2 2 2 2 2 2 2 2 2 2 2 2 1 1 1 1 0 0 0 0 0 0 0 0 1 0 0 0 0 0 0 0 1 1 1
1 1 1 1 2 2 2 2 2 2 2 2 2 2 2 1 1 1 1 1 1 1 0 0 0 0 0 0 0 0 0 1 1 1 0 0 0 0 0 0 1 1 1
1 1 1 1 1 2 2 2 2 2 2 2 2 1 1 1 1 1 1 0 0 0 0 0 0 0 0 0 0 0 0 1 1 1 0 0 0 0 0 1 1 1 1
0 1 1 1 1 1 1 2 2 2 1 1 1 1 1 1 1 1 0 0 0 0 0 0 0 0 0 0 0 0 0 1 1 1 1 1 1 1 1 1 1 1 1
0 1 1 1 1 1 1 1 1 1 1 1 1 0 0 0 0 0 0 0 0 0 0 0 0 0 0 0 0 0 0 0 0 1 1 1 1 1 1 1 1 1 1
0 0 1 1 1 1 1 1 1 1 1 1 0 0 0 0 0 0 0 0 0 0 0 0 0 0 0 0 0 0 0 0 0 1 1 1 1 1 1 1 1 1 1
0 0 1 1 1 0 0 0 0 0 0 0 0 0 0 0 0 0 0 0 0 0 0 0 0 0 0 0 0 0 0 0 1 1 1 1 1 1 1 1 1 1 1
0 0 0 0 0 0 0 0 0 0 0 0 0 0 0 0 1 0 0 0 0 0 0 0 0 0 0 0 0 0 0 0 0 0 0 1 1 1 1 1 1 1 1
0 0 0 0 0 0 0 0 0 0 0 0 0 0 0 1 1 1 1 1 1 0 0 0 0 0 0 0 0 0 0 0 0 0 0 1 1 1 0 0 0 0 0
1 1 0 0 0 0 0 0 0 0 0 0 0 0 0 0 0 0 0 0 0 0 0 0 0 0 0 0 0 0 0 0 0 0 0 0 1 1 0 0 0 0 0
1 1 1 1 1 0 0 0 0 0 0 0 0 0 0 0 0 0 0 0 0 0 0 0 0 0 0 0 0 0 0 0 0 0 0 0 1 1 1 1 1 0 0
1 1 1 1 1 1 0 0 0 0 0 0 0 0 0 0 0 0 0 0 0 0 0 0 0 0 0 0 0 0 0 0 0 0 0 1 1 1 1 1 1 1 1
2 2 2 2 1 1 0 0 0 0 0 0 0 0 0 0 0 0 0 0 0 0 0 0 0 0 0 0 0 0 0 0 0 0 0 1 1 2 2 1 1 1 1
3 3 2 2 1 1 1 0 0 0 0 0 0 0 0 0 0 0 0 0 0 0 0 0 0 0 0 0 0 0 0 0 0 0 1 1 2 2 2 2 2 2 2
4 4 3 3 2 1 1 1 1 0 0 0 0 0 0 0 0 1 0 0 0 0 0 0 0 0 0 0 0 0 0 0 0 0 0 1 1 2 2 2 2 2 2
5 5 4 4 3 2 1 1 1 1 1 1 1 1 1 1 1 1 1 0 0 0 0 0 0 0 0 0 0 0 0 0 0 0 0 0 1 1 2 3 3 3 2
5 5 5 4 3 2 2 2 2 1 1 1 1 1 1 1 1 1 1 0 0 0 0 0 0 0 0 0 0 0 0 0 0 0 0 0 0 1 1 2 3 3 3
6 7 7 6 4 4 4 3 3 2 2 1 1 1 1 1 1 0 0 0 0 0 0 0 0 0 0 0 0 0 0 0 0 0 0 0 0 0 0 1 1 2 2
8 9 9 7 6 6 6 5 4 3 2 1 1 1 1 1 0 0 0 0 0 0 0 0 0 0 0 0 0 0 0 0 0 0 0 0 0 0 0 0 0 1 1
10 10 10 9 8 8 8 6 5 3 1 1 0 0 0 0 0 0 0 0 0 0 0 0 0 0 0 0 0 0 0 0 0 0 0 0 0 0 0 0 0 0 0
10 11 12 11 10 10 8 7 4 2 1 0 0 0 0 0 0 0 0 0 0 0 0 0 0 0 0 0 0 0 0 0 0 0 0 0 0 0 0 0 0 0 0
10 11 12 12 12 10 8 5 3 1 0 0 0 0 0 0 0 0 0 0 0 0 0 0 0 0 0 0 0 0 0 0 0 0 0 0 0 0 0 0 0 0 0
11 12 12 12 11 9 6 3 1 1 0 0 0 0 0 0 0 0 0 0 0 0 0 0 0 0 0 0 0 0 0 0 0 0 0 0 0 0 0 0 0 0 0
13 13 12 10 8 5 3 1 1 0 0 0 0 0 0 0 0 0 0 0 0 0 0 0 0 0 0 0 0 0 0 0 0 0 0 0 0 0 0 0 0 0 0
13 12 11 8 6 3 2 1 1 0 0 0 0 0 0 0 0 0 0 0 0 0 0 0 0 0 0 0 0 0 0 0 0 0 0 0 0 0 0 0 0 0 0
Wind_Speed
6 6 12 15 16 15 14 14 14 14 15 15 15 15 15 15 15 15 15 15 15 14 14 13 12 11 10 9 7 6 7 7 7 6 6 7 7 7 7 8 11 8 12
11 8 12 14 15 15 15 14 14 14 13 14 14 14 14 13 13 13 13 13 13 13 13 12 10 9 8 7 5 4 6 7 6 4 3 5 6 6 6 8 10 6 11
13 10 12 14 15 15 15 14 14 14 14 13 13 12 12 11 11 10 11 11 11 12 11 10 9 7 6 4 3 4 6 6 5 4 1 1 3 6 7 8 10 8 8
13 9 11 16 15 15 15 15 14 14 14 14 13 12 11 10 9 9 9 9 9 10 11 9 8 6 4 3 3 4 6 6 6 6 1 3 3 7 8 9 9 8 8
11 9 12 16 16 16 16 16 15 15 15 14 14 13 11 10 9 8 9 9 9 9 10 9 7 5 3 2 3 4 5 6 7 6 3 4 3 7 8 9 9 8 7
12 10 12 16 16 16 16 16 16 16 15 15 14 13 11 9 8 8 9 10 9 9 8 8 6 4 2 0 2 3 5 7 6 2 3 5 4 7 8 8 9 8 7
11 8 11 15 16 16 16 15 14 14 13 13 13 12 10 9 9 8 9 9 9 9 8 8 6 4 3 3 4 4 5 8 5 2 4 5 5 8 9 8 8 7 7
14 10 10 16 17 16 16 15 14 13 12 12 11 11 10 9 9 9 9 9 10 10 9 8 7 6 6 6 5 5 6 6 5 5 5 5 8 9 10 9 8 8 7
13 11 9 9 12 16 16 15 15 13 12 11 11 10 10 9 9 9 9 9 10 10 9 8 8 7 7 5 5 6 5 4 3 3 6 5 9 11 11 10 9 8 7
11 11 10 8 7 7 10 16 16 14 13 12 11 11 10 10 10 11 9 9 10 10 10 9 8 7 6 6 6 6 4 3 2 4 3 6 12 12 12 11 10 9 7
11 9 9 9 8 8 7 11 13 13 12 11 9 11 9 5 5 6 8 10 11 11 10 9 7 6 6 6 8 7 3 1 3 3 3 7 11 13 13 11 10 9 8
13 11 9 9 9 8 8 7 5 6 6 5 5 6 4 4 4 6 8 11 11 11 9 8 6 5 5 3 5 6 1 1 3 4 4 10 12 13 13 12 11 11 10
15 14 12 11 10 9 6 6 4 3 3 4 5 6 4 3 3 3 2 4 5 6 3 1 2 2 3 3 4 3 3 2 2 3 5 13 13 14 14 13 12 12 11
14 15 14 13 11 9 7 6 5 4 4 4 5 6 4 3 3 3 2 3 3 2 2 2 2 3 3 2 2 2 3 2 2 2 4 11 11 12 12 12 12 11 11
15 15 16 14 13 10 8 6 7 5 6 6 5 5 5 4 4 3 3 2 3 3 3 3 2 2 2 2 3 5 5 4 3 2 2 8 8 8 9 10 10 10 10
17 16 15 16 14 11 9 7 7 6 6 6 5 6 7 5 4 4 4 3 3 3 3 3 3 4 3 3 4 4 4 4 3 2 0 2 6 7 8 9 10 10 10
17 16 16 16 13 11 10 10 8 7 7 6 5 6 7 6 7 6 5 3 3 3 4 4 4 4 4 4 5 5 4 5 4 4 2 2 3 7 9 9 8 9 10
15 16 17 15 13 11 9 8 6 6 6 5 4 5 6 6 7 6 4 3 3 4 4 4 3 3 4 4 4 4 4 4 5 4 3 3 2 3 5 7 6 6 7
16 17 16 14 14 11 8 6 6 5 5 4 5 5 5 7 8 6 5 4 4 4 4 4 4 3 4 4 4 4 4 4 4 5 6 6 5 4 4 7 11 11 10
13 14 14 13 13 10 9 8 7 7 5 4 5 5 7 7 8 7 6 5 5 5 4 4 5 5 4 3 4 4 4 4 3 4 5 5 5 6 5 6 6 8 13
12 12 12 14 12 11 10 9 8 6 5 5 5 6 8 8 8 7 6 5 5 4 4 4 3 5 5 4 3 4 4 3 3 3 3 4 5 5 5 5 4 4 5
11 10 9 12 11 10 9 7 6 7 6 5 4 6 7 8 7 7 6 5 5 5 6 6 4 3 3 4 2 2 4 5 3 3 3 4 5 4 5 6 5 5 4
11 10 9 11 11 10 10 9 10 7 6 4 5 4 5 7 7 6 7 6 6 6 5 5 5 4 2 3 3 3 2 2 4 4 3 4 4 4 4 4 5 5 5
10 7 8 9 10 10 11 12 12 8 6 4 4 4 4 5 6 7 7 7 6 5 5 4 4 3 3 2 2 3 2 2 1 5 5 4 4 4 4 4 5 5 5
8 8 8 10 10 11 11 11 11 9 7 5 5 5 4 4 5 6 6 6 6 4 4 4 3 3 2 2 1 1 1 1 1 2 4 6 5 4 3 3 4 4 5
9 9 10 12 10 11 12 11 12 13 11 8 6 5 3 3 3 5 6 5 5 4 3 3 3 3 2 1 1 1 1 2 3 3 4 5 5 5 5 4 4 4 5
Wind_Direction
152 161 144 135 137 138 135 129 124 120 116 114 113 111 109 107 107 110 114 115 116 117 117 115 112 108 105 102 98 93 87 81 81 94 115 116 110 101 98 120 129 122 124
149 153 142 135 138 139 137 133 129 125 120 117 114 112 111 111 111 115 119 121 121 122 121 119 116 114 111 108 100 80 66 60 58 63 103 123 123 112 105 120 132 135 136
142 146 141 136 137 139 138 134 131 128 125 122 118 114 113 112 112 115 120 123 125 126 125 123 122 119 113 105 80 51 46 41 29 16 20 145 137 130 117 118 130 132 136
144 146 142 137 137 138 136 133 130 130 129 127 124 122 121 119 118 118 120 124 129 134 135 134 129 121 109 84 38 26 30 25 11 5 19 178 163 135 127 128 133 134 136
143 143 144 137 137 136 136 136 135 136 135 134 133 133 132 129 128 127 126 127 128 134 140 139 134 126 112 62 7 8 12 9 8 17 33 117 125 127 128 136 140 140 140
145 148 146 141 141 141 142 143 144 143 142 141 141 141 139 137 135 132 129 132 133 134 137 136 135 133 132 34 319 336 359 2 8 20 88 109 112 121 124 131 137 140 144
145 148 148 146 147 146 146 146 146 144 143 143 144 145 143 141 140 137 135 137 138 137 137 139 146 158 190 232 264 300 2 9 33 70 121 117 127 130 121 115 117 129 142
147 147 149 151 151 149 148 148 147 147 148 149 150 151 149 149 146 143 143 144 145 145 149 155 167 189 216 239 273 316 10 33 51 95 117 127 141 136 131 125 123 125 131
146 148 149 155 155 154 152 153 153 154 155 157 158 158 156 153 149 150 151 153 155 159 165 173 188 210 231 255 287 314 355 41 93 138 148 155 159 153 147 141 137 135 135
147 154 156 155 152 151 155 159 160 162 162 163 164 163 161 160 160 161 161 165 169 175 182 189 203 224 249 272 286 298 328 58 172 188 170 180 171 161 155 152 149 147 148
155 162 160 159 157 155 157 165 166 168 169 167 167 167 160 159 162 167 174 178 181 189 195 201 212 238 263 279 285 285 301 163 196 190 184 192 177 168 165 163 161 160 163
165 170 167 166 167 165 170 162 167 170 170 166 166 166 161 167 181 184 193 190 194 202 206 210 221 247 268 282 294 304 317 239 200 178 190 195 187 179 175 175 175 176 179
171 170 171 171 172 173 167 164 171 167 166 174 178 178 176 172 182 188 175 198 210 214 212 242 242 248 275 301 322 332 343 318 172 168 194 198 196 190 186 186 188 190 194
174 176 172 173 174 178 169 172 170 170 175 186 192 186 176 168 173 178 175 196 209 197 200 242 235 236 263 266 251 76 63 61 129 159 207 205 207 202 197 199 202 204 207
181 180 175 176 178 179 171 177 176 179 182 191 191 188 180 176 183 190 186 201 214 196 200 222 207 177 161 131 90 79 78 85 114 165 214 216 222 225 219 218 223 227 231
185 183 178 179 181 179 177 181 180 183 183 190 188 181 172 167 163 158 156 167 175 157 148 136 133 123 106 83 62 55 54 53 69 75 15 270 256 250 245 243 246 252 257
185 181 179 180 181 182 182 186 185 186 182 184 177 169 163 155 150 142 141 150 152 128 116 99 84 72 60 46 37 27 28 22 27 31 26 337 311 293 280 270 269 273 278
179 177 179 180 178 180 177 173 171 173 170 167 152 146 145 136 133 122 118 111 99 88 86 81 65 60 45 33 14 3 8 6 4 4 13 6 344 322 321 325 324 319 309
175 172 174 171 171 168 151 138 137 137 135 128 120 115 115 112 109 103 97 90 86 78 66 68 57 63 45 21 2 359 358 350 353 8 16 18 22 22 11 16 25 26 21
167 166 165 162 160 144 128 118 109 95 87 82 92 102 104 104 102 98 91 81 78 74 60 59 64 53 48 22 3 351 334 341 15 38 35 32 32 33 31 28 20 17 23
163 162 162 162 158 146 139 134 128 117 99 81 76 86 91 93 90 87 88 74 68 73 70 71 72 54 34 21 31 350 335 357 38 50 37 34 21 13 19 23 17 15 7
164 156 155 163 158 151 146 137 124 117 101 84 73 63 72 81 81 85 83 75 68 74 61 52 60 67 30 28 65 42 351 342 342 7 13 31 13 359 5 10 19 19 5
162 160 159 161 153 142 134 121 114 101 93 88 88 77 68 75 79 88 84 77 71 77 80 73 73 89 67 27 55 98 80 310 314 324 355 15 359 356 353 354 12 7 2
154 141 138 142 135 131 130 132 133 128 123 118 116 107 97 93 96 96 87 82 85 92 98 91 87 94 101 58 30 52 111 173 275 315 323 332 343 351 347 349 349 344 347
127 125 120 119 119 119 119 123 118 111 109 112 108 104 90 87 96 100 96 95 100 99 105 102 93 82 98 112 86 50 36 35 150 186 290 312 322 315 310 311 315 316 319
105 102 104 103 103 111 115 117 122 126 129 135 134 129 115 99 94 99 97 99 109 113 120 125 97 78 93 104 156 183 192 229 251 224 248 271 280 284 289 289 289 287 289